Tracking 27402 objects as of 2-Jun-2023
HD Live streaming from Space Station
objects crossing your sky now

STARLINK-4340

Track STARLINK-4340 now!
10-day predictions
STARLINK-4340 is classified as:


NORAD ID: 53494
Int'l Code: 2022-099AF
Perigee: 569.9 km
Apogee: 570.4 km
Inclination: 97.7 °
Period: 95.9 minutes
Semi major axis: 6941 km
RCS: Unknown
Launch date: August 12, 2022
Source: United States (US)
Launch site: AIR FORCE WESTERN TEST RANGE (AFWTR)
Your satellite tracking list
Your tracking list is empty




NASA's NSSDC Master Catalog

Two Line Element Set (TLE):
1 53494U 22099AF  23153.30780044 -.00000583  00000-0 -40809-4 0  9990
2 53494  97.6548 274.5832 0000336  77.6820 282.4442 15.01261485 44488
Source of the keplerian elements: AFSPC